SCP
-0 -0 -0 0 -0 -0 -0 -0 0 -0 -0 -0 0 0 0 0 -0 -0 -0 -0 -0 -0 0 0 -0 -0 -0 -0 -0 0 0 0 0 0 0 0 0 0 0 0 0 0 0 0 0 0 0 0 0
-0 0 -0 -0 -0 0 -0 -0 -0 0 -0 0 -0 0 0 0 -0 -0 -0 -0 -0 0 0 -0 -0 -0 -0 -0 -0 0 0 0 0 0 0 0 0 0 0 0 0 0 0 0 0 0 0 0 0
0 0 -0 -0 -0 -0 -0 0 0 0 0 -0 -0 -0 -0 -0 -0 -0 -0 0 0 0 -0 0 -0 -0 -0 0 0 0 0 0 0 0 0 0 0 0 0 0 0 0 0 0 0 0 0 0 0
0 0 0 -0 -0 0 -0 -0 0 -0 -0 0 0 -0 -0 -0 -0 -0 0 0 -0 0 0 0 0 0 0 0 0 0 0 0 0 0 0 0 0 0 0 0 0 0 0 0 0 0 0 0 0
0 -0 0 0 -0 -0 0 -0 -0 -0 -0 0 0 -0 0 -0 -0 -0 -0 0 -0 0 0 0 0 0 0 0 0 0 0 0 0 0 0 0 0 0 0 0 0 0 0 0 0 0 0 0 0
-0 -0 0 -0 -0 -0 -0 0 -0 0 0 0 -0 0 0 -0 -0 -0 -0 -0 0 0 0 0 0 0 0 0 0 0 0 0 0 0 0 0 0 0 0 0 0 0 0 0 0 0 0 0 0
0 0 -0 -0 -0 -0 -0 0 0 0 0 -0 -0 0 0 -0 -0 -0 -0 -0 0 0 0 0 0 0 0 0 0 0 0 0 0 0 0 0 0 0 0 0 0 0 0 0 0 0 0 0 0
0 -0 0 -0 -0 -0 0 0 0 0 0 0 -0 -0 0 0 0 0 -0 -0 -0 0 0 0 0 0 0 0 0 0 0 0 0 0 0 0 0 0 0 0 0 0 0 0 0 0 0 0 0
0 0 0 -0 -0 -0 -0 0 0 0 -0 -0 -0 -0 0 0 0 0 0 -0 -0 0 0 0 0 0 0 0 0 0 0 0 0 0 0 0 0 0 0 0 0 0 0 0 0 0 0 0 0
0 0 -0 -0 -0 0 0 0 0 0 0 0 0 -0 -0 -0 0 0 0 0 0 0 0 0 0 0 0 0 0 0 0 0 0 0 0 0 0 0 0 0 0 0 0 0 0 0 0 0 0
-0 0 0 -0 0 0 0 0 0 0 0 0 0 0 -0 0 0 0 0 0 0 0 0 0 0 0 0 0 0 0 0 0 0 0 0 0 0 0 0 0 0 0 0 0 0 0 0 0 0
-0 -0 -0 -0 0 0 0 0 0 -0 0 0 0 0 0 0 0 0 0 0 0 0 0 0 0 0 0 0 0 0 0 0 0 0 0 0 0 0 0 0 0 0 0 0 0 0 0 0 0
0 -0 0 -0 -0 0 0 0 0 0 0 0 0 0 0 0 0 0 0 0 0 0 0 0 0 0 0 0 0 0 0 0 0 0 0 0 0 0 0 0 0 0 0 0 0 0 0 0 0
-0 0 -0 0 0 0 0 0 0 0 0 0 0 0 0 0 0 0 0 0 0 0 0 0 0 0 0 0 0 0 0 0 0 0 0 0 0 0 0 0 0 0 0 0 0 0 0 0 0
-0 -0 0 0 0 0 0 0 0 0 0 0 0 0 0 0 0 0 0 0 0 0 0 0 0 0 0 0 0 0 0 0 0 0 0 0 0 0 0 -0 0 0 0 0 0 0 0 0 0
0 0 0 0 0 0 0 0 0 0 0 0 0 0 0 0 0 0 0 0 0 0 0 0 0 0 0 -0 -0 -0 -0 -0 0 0 0 0 0 0 0 0 0 0 0 0 0 0 0 0 0
0 0 0 0 0 0 0 0 0 0 0 0 0 -0 0 0 0 0 0 0 0 0 0 0 0 0 -0 0 -0 -0 -0 0 0 0 0 0 0 0 0 0 0 0 0 0 0 0 0 0 0
0 0 0 0 0 0 0 0 0 -0 0 0 -0 -0 -0 0 0 0 -0 -0 -0 0 0 0 0 0 0 0 0 0 -0 -0 0 0 0 0 0 0 0 0 0 0 0 0 0 0 0 0 0
0 0 0 0 0 0 0 0 0 0 0 0 -0 -0 0 0 -0 0 0 0 0 0 0 0 0 0 0 0 0 0 -0 0 0 0 0 0 0 0 0 0 0 0 0 0 0 0 0 0 0
0 0 0 0 0 0 0 0 0 0 -0 -0 0 -0 0 0 0 0 0 0 0 0 0 0 0 0 0 0 0 0 0 0 0 0 0 0 0 0 0 0 0 0 0 0 0 0 0 0 0
0 0 0 0 0 0 0 0 0 -0 -0 0 0 0 0 0 0 0 0 0 0 0 0 0 0 0 0 0 0 0 0 0 0 0 0 0 0 0 0 0 0 0 0 0 0 0 0 0 0
0 0 0 0 0 0 0 0 0 -0 -0 0 0 0 0 0 0 0 0 0 0 0 0 0 0 0 0 0 0 0 0 0 0 0 0 0 0 0 0 0 0 0 0 0 0 0 0 0 0
0 0 0 0 0 0 0 0 0 0 0 0 0 0 0 0 0 0 0 0 0 0 0 0 0 0 0 0 0 0 0 0 0 0 0 0 0 0 0 0 0 0 0 0 0 0 0 0 0
0 0 0 0 0 0 0 0 0 0 0 0 0 0 0 0 0 0 0 0 0 0 0 0 0 0 0 0 0 0 0 0 0 0 0 0 0 0 0 0 0 0 0 0 0 0 0 0 0
0 0 0 0 0 0 0 0 0 0 0 0 0 0 0 0 0 0 0 0 0 0 0 0 0 0 0 0 0 0 0 0 0 0 0 0 0 -0 0 0 0 0 0 0 0 0 0 0 0
0 0 0 0 0 0 0 0 0 0 0 0 0 0 0 0 0 0 0 0 0 0 0 0 0 0 0 0 0 0 0 0 0 0 0 -0 -0 0 0 0 -0 -0 -0 0 0 0 0 0 0
0 0 0 0 0 0 0 0 0 0 0 0 0 0 0 0 0 0 0 0 0 0 0 0 0 0 0 0 0 0 0 0 0 0 -0 -0 0 0 0 -0 0 -0 -0 0 0 0 0 0 0
0 0 0 0 0 0 0 0 0 0 0 0 0 0 0 0 0 0 0 0 0 0 0 0 0 0 0 0 0 0 0 0 0 0 0 0 0 0 0 0 0 0 -0 -0 -0 -0 0 0 0
0 0 0 0 0 0 0 0 0 0 0 0 0 0 0 0 0 0 0 0 0 0 0 0 0 0 0 0 0 0 0 0 0 0 0 0 0 0 0 0 -0 -0 -0 -0 -0 0 0 0 0
0 0 0 0 0 0 0 0 0 0 0 0 0 0 0 0 0 0 0 0 0 0 0 0 0 0 0 0 0 0 0 0 0 0 0 0 0 0 -0 -0 0 0 0 0 0 0 0 0 0
Wind_Speed_500mb
7 8 4 8 10 10 6 2 3 16 12 38 29 18 12 23 6 9 25 36 27 23 20 17 16 15 14 13 12 11 12 11 10 11 15 19 22 26 30 33 34 33 32 32 32 29 25 25 20
6 5 9 9 10 8 3 7 7 7 11 22 41 25 25 13 28 29 28 31 27 21 18 17 15 13 12 11 9 8 8 5 7 10 14 19 24 27 31 31 31 31 30 31 32 31 29 24 19
6 7 3 8 6 9 7 8 4 15 15 9 5 14 8 12 25 22 35 32 28 24 18 15 13 11 10 8 6 5 3 3 6 11 15 19 23 26 29 28 27 28 27 27 28 28 27 26 22
8 8 14 9 9 3 9 5 12 13 8 13 20 14 18 24 25 34 38 32 21 20 17 13 11 9 7 6 4 3 3 3 4 8 13 17 21 23 25 24 23 22 21 19 19 21 22 22 22
5 10 11 8 5 6 5 14 16 13 9 26 15 19 23 34 36 32 33 28 19 19 15 12 9 8 8 7 6 4 5 5 6 8 11 14 17 19 21 19 18 16 13 10 10 11 15 17 16
6 8 11 5 5 9 10 10 9 14 34 23 23 17 20 26 34 31 31 31 25 22 20 15 12 11 8 6 7 8 8 6 6 7 9 12 13 13 14 13 10 8 6 5 4 2 5 11 16
10 9 8 8 2 3 6 12 13 15 21 24 7 11 19 35 37 38 37 33 29 27 22 19 16 13 10 9 11 11 9 8 8 7 8 10 12 13 12 11 9 10 12 11 10 8 6 5 13
13 13 7 1 8 6 8 10 19 27 20 7 9 8 12 34 42 33 37 29 24 24 21 20 17 14 11 9 7 8 9 10 9 9 11 14 17 18 18 17 17 18 19 17 13 12 11 10 11
14 10 8 11 8 8 11 10 30 28 42 54 31 49 40 44 46 36 36 31 20 17 16 15 15 12 8 5 2 2 3 6 8 11 13 16 18 20 22 22 23 23 23 23 20 18 16 17 15
9 9 18 19 8 12 24 16 7 16 34 29 45 44 42 43 42 46 43 35 27 24 21 16 12 11 9 2 5 4 4 5 7 11 15 19 22 25 27 29 28 28 31 31 27 24 22 26 24
7 11 19 30 15 47 26 45 13 21 23 25 25 38 40 36 36 35 37 33 26 22 22 21 17 13 13 7 10 12 13 15 16 22 24 29 30 32 35 35 30 36 37 39 39 33 29 32 29
15 13 9 20 31 28 19 19 34 50 33 39 35 33 27 26 27 26 29 28 26 21 17 14 13 11 13 13 13 19 20 21 21 23 22 23 25 28 28 28 28 30 34 38 35 20 23 35 40
13 8 22 44 54 54 59 45 32 44 43 38 36 31 26 25 26 25 25 25 24 25 23 24 19 19 18 15 14 17 19 21 21 26 27 24 21 22 24 25 24 26 28 29 31 33 31 36 47
17 34 38 40 49 30 43 26 13 28 33 35 32 30 29 27 25 23 22 25 29 31 33 34 35 36 34 27 22 23 29 33 34 28 26 21 22 29 30 31 25 22 26 30 32 34 36 39 40
51 27 31 26 20 26 52 25 17 25 21 25 25 31 24 25 22 23 22 25 27 31 32 31 30 29 35 30 29 35 41 44 40 30 26 26 22 20 27 30 25 22 20 23 26 26 30 33 37
10 8 9 11 20 19 13 17 14 16 11 15 15 27 26 24 22 21 19 21 26 25 28 28 30 29 35 29 27 38 48 54 51 34 27 27 22 21 20 25 30 34 36 34 30 27 25 24 28
2 8 22 7 13 11 6 24 17 2 3 12 16 21 24 20 21 17 16 17 20 22 25 25 27 35 35 26 31 44 53 53 42 23 20 24 26 23 30 34 34 37 38 38 32 29 27 23 22
7 11 14 15 11 23 27 27 6 2 14 14 15 19 20 17 14 13 10 10 8 11 14 19 30 36 31 25 36 45 46 43 34 27 26 28 27 31 33 42 37 32 29 29 30 28 25 28 25
15 32 29 13 21 25 28 14 5 0 17 16 17 16 17 13 9 6 2 8 17 16 18 23 25 24 24 34 46 44 42 44 35 29 33 31 32 33 35 39 32 30 30 28 24 27 26 28 26
26 29 22 22 15 25 15 16 12 12 11 15 13 15 14 10 5 5 9 14 14 7 17 21 23 26 35 43 44 44 46 41 37 30 27 26 27 28 29 31 32 33 31 23 21 21 23 24 19
4 14 16 23 18 23 26 11 7 4 5 10 14 17 15 11 7 2 10 13 12 13 18 19 24 33 42 45 47 51 44 38 37 31 26 21 20 22 27 27 29 33 28 23 23 20 20 19 15
8 19 42 52 22 11 3 7 5 4 5 16 16 22 19 8 5 4 7 6 6 13 13 18 32 41 43 41 40 44 41 41 38 39 37 33 29 28 31 32 30 33 26 25 19 15 15 15 13
5 47 47 28 24 14 3 7 5 5 2 9 13 22 20 9 8 2 8 8 3 13 22 29 37 43 37 34 39 44 44 40 39 40 35 28 25 28 33 28 22 19 14 13 12 11 10 10 9
7 15 12 10 8 8 7 7 7 9 13 14 21 21 17 12 11 8 9 5 6 14 25 37 41 27 32 38 44 40 39 39 38 33 31 28 23 20 20 18 13 5 8 10 13 9 7 7 9
12 13 7 8 10 4 3 7 9 7 14 17 31 25 19 12 13 13 11 7 15 27 39 35 25 31 36 46 34 34 37 40 37 36 31 25 21 19 10 4 1 5 7 9 15 11 5 3 8
9 11 9 7 8 6 8 6 5 2 17 23 27 24 22 14 16 13 5 12 26 36 28 21 24 27 37 45 38 33 30 38 37 31 28 28 17 30 30 23 16 14 17 15 16 14 9 5 9
2 8 5 13 6 8 3 4 5 10 13 19 24 30 22 22 15 8 6 19 25 20 18 17 24 29 34 40 44 35 32 30 33 28 24 23 26 23 22 22 21 13 16 23 20 17 14 14 17
13 6 7 7 8 5 4 5 6 12 13 17 23 25 28 24 14 4 11 19 10 13 14 16 26 29 31 38 40 39 33 32 28 26 26 27 21 19 17 18 16 16 16 19 22 24 21 14 19
9 7 10 10 7 8 6 8 10 16 18 20 35 33 32 23 11 4 14 13 11 8 10 17 24 27 34 34 38 39 34 31 28 25 19 17 16 13 16 17 15 13 12 17 20 25 26 23 19
8 4 7 9 1 5 6 8 9 23 38 41 31 35 32 20 7 7 12 8 11 9 10 19 25 28 30 37 34 33 38 36 29 28 25 18 17 16 16 16 16 11 7 11 9 15 19 21 18
Wind_Direction_500mb
344 23 61 67 54 68 61 15 264 355 48 60 83 81 89 47 50 153 145 161 152 135 135 133 131 138 139 136 132 130 136 128 131 141 143 143 141 140 138 136 132 125 119 114 109 104 106 114 125
27 68 110 77 85 59 11 299 312 284 39 109 94 83 58 69 94 120 134 149 143 136 144 140 140 146 144 142 139 144 153 140 145 144 145 146 142 142 140 137 132 126 119 111 102 97 93 100 128
135 129 60 83 99 136 156 234 260 301 338 30 98 46 60 106 113 124 138 142 135 150 144 143 147 145 145 146 144 148 159 164 159 154 154 152 148 148 146 142 136 129 122 112 102 93 90 93 117
137 113 67 71 68 344 189 253 301 319 6 96 111 59 61 106 108 127 130 125 129 136 131 134 137 132 125 108 98 100 73 120 151 157 159 157 155 154 152 148 143 137 128 114 100 96 94 99 112
105 89 65 73 15 232 267 43 17 30 40 47 50 71 72 108 113 119 120 118 117 108 109 105 105 109 110 101 69 63 94 118 136 152 158 161 160 160 160 158 155 151 138 124 117 105 102 106 119
10 83 67 103 270 279 49 55 55 44 84 69 70 73 67 93 109 115 114 111 107 98 92 89 87 90 96 80 79 87 85 101 121 144 159 164 168 169 166 167 167 168 176 186 199 164 106 120 143
111 70 115 123 237 324 59 80 47 29 46 20 95 84 68 115 121 121 118 112 104 97 94 86 85 85 81 81 88 90 94 101 116 133 153 172 181 186 188 186 187 198 204 212 222 234 231 200 165
124 82 83 326 218 65 62 64 56 37 42 305 99 98 81 97 132 132 125 115 108 105 89 80 67 65 66 62 73 100 132 141 144 162 185 202 209 209 206 213 217 222 216 217 226 238 244 232 210
149 83 127 176 227 129 61 101 72 86 76 62 75 105 118 119 128 139 128 120 103 83 73 82 71 58 46 43 63 148 149 165 195 213 219 228 237 239 237 239 242 246 241 234 244 254 246 246 229
97 112 187 201 171 139 115 89 74 106 88 72 79 100 124 120 116 109 104 99 92 82 75 72 83 82 70 33 79 318 308 275 260 267 269 266 267 268 261 256 257 257 255 256 267 266 261 237 231
42 143 173 207 137 122 86 56 60 102 59 77 84 98 106 103 94 96 95 91 81 77 79 80 72 57 53 36 359 340 338 324 305 295 287 280 283 282 276 270 270 266 267 264 267 254 264 244 234
93 62 10 107 118 103 88 88 60 69 80 92 95 91 91 92 90 85 93 93 95 92 80 68 58 45 42 26 19 13 357 348 333 324 303 288 279 280 284 280 273 268 265 261 264 247 241 245 244
62 93 78 91 92 94 93 74 90 83 98 100 107 104 102 102 102 99 96 92 83 71 61 51 33 21 10 348 342 329 333 345 349 342 340 333 311 308 307 301 290 281 272 266 267 265 266 256 251
109 91 82 89 91 110 97 73 97 100 128 128 124 115 116 112 107 97 83 75 60 56 51 45 40 33 16 2 357 352 342 336 327 322 330 331 331 334 333 334 319 303 287 278 273 267 262 259 256
118 92 78 88 92 119 93 74 99 148 134 124 114 114 120 111 109 89 74 65 54 54 53 41 25 17 22 5 351 353 346 337 319 315 306 311 320 343 355 345 334 319 311 304 296 288 276 265 262
66 103 126 230 126 186 22 116 151 144 90 98 121 109 115 113 103 91 74 61 57 49 33 22 6 9 11 11 356 344 347 341 341 315 295 300 303 318 331 328 324 317 313 308 305 299 281 278 275
96 153 113 128 345 133 164 126 193 167 278 123 116 116 114 119 112 87 79 55 44 24 8 359 353 2 358 344 339 349 345 338 325 309 295 287 292 302 306 306 309 308 304 300 294 286 294 296 300
234 101 77 96 3 107 103 117 145 128 124 125 141 130 136 145 124 104 70 36 341 345 350 344 354 353 347 328 333 343 342 334 310 293 290 285 287 293 290 297 300 307 313 307 294 286 286 291 303
97 85 92 114 123 84 117 117 116 243 125 159 184 166 158 148 155 141 348 300 299 322 332 333 329 326 329 336 341 342 345 342 327 303 294 296 288 287 285 282 299 307 310 308 298 279 280 286 286
98 104 94 74 99 108 142 110 131 190 172 186 191 199 168 177 226 268 314 297 324 300 316 311 313 324 333 336 340 338 332 331 325 315 303 295 286 289 292 292 298 314 312 308 303 283 270 269 262
72 134 172 134 102 110 130 77 97 42 173 175 217 214 197 199 235 337 331 325 304 294 302 304 319 327 331 334 336 334 327 323 321 322 324 319 307 298 296 296 305 309 302 303 306 292 279 262 252
71 116 134 138 129 153 235 115 265 211 248 169 197 208 204 197 201 325 334 328 306 282 292 310 318 325 328 335 345 341 342 337 332 326 320 310 295 290 287 298 300 302 294 297 293 291 284 267 257
105 137 148 150 119 114 91 114 193 120 262 177 204 200 198 220 191 3 321 296 248 274 305 316 326 331 339 349 344 341 338 331 322 320 316 313 315 289 280 291 300 308 305 304 298 298 284 271 240
97 132 101 116 117 70 279 139 201 184 200 173 203 200 200 221 211 260 247 273 343 331 331 334 341 353 355 351 343 346 351 351 344 340 337 332 327 318 294 281 292 330 353 352 332 303 294 262 215
73 59 359 8 29 181 253 73 229 201 171 189 187 195 212 235 225 210 222 276 323 334 336 349 7 1 357 354 352 352 2 1 354 349 352 346 346 357 345 329 134 81 5 334 337 348 282 268 196
77 129 146 252 178 201 7 134 235 150 168 171 173 186 183 179 185 196 230 338 338 342 345 2 355 356 356 357 357 355 354 4 6 0 4 9 18 41 33 39 45 71 41 47 54 47 70 102 148
44 52 171 107 68 97 218 125 120 112 102 132 173 182 175 171 176 150 19 344 341 356 0 10 356 356 1 9 9 3 4 356 5 9 13 7 57 49 41 44 40 71 65 64 55 60 67 89 114
95 153 23 16 134 111 179 246 236 182 174 171 181 186 166 163 157 113 354 340 350 1 2 357 357 6 6 8 9 11 9 15 14 16 20 67 52 31 35 47 35 49 63 63 67 68 70 76 103
11 11 51 109 78 142 166 256 210 187 187 185 195 193 178 168 154 26 348 347 351 2 359 2 5 358 8 15 14 18 18 20 22 18 23 17 25 14 22 35 39 49 68 64 59 70 70 80 93
81 76 99 109 159 62 126 269 315 183 183 193 183 187 173 170 152 7 7 14 20 357 348 1 9 6 4 12 14 20 24 28 24 24 25 25 14 13 16 20 17 12 74 82 67 71 79 78 80
Wind_Speed_850mb
7 8 4 8 10 10 6 2 3 16 12 38 29 18 12 23 6 9 25 36 27 23 20 17 16 15 14 13 12 11 12 11 10 11 15 19 22 26 30 33 34 33 32 32 32 29 25 25 20
6 5 9 9 10 8 3 7 7 7 11 22 41 25 25 13 28 29 28 31 27 21 18 17 15 13 12 11 9 8 8 5 7 10 14 19 24 27 31 31 31 31 30 31 32 31 29 24 19
6 7 3 8 6 9 7 8 4 15 15 9 5 14 8 12 25 22 35 32 28 24 18 15 13 11 10 8 6 5 3 3 6 11 15 19 23 26 29 28 27 28 27 27 28 28 27 26 22
8 8 14 9 9 3 9 5 12 13 8 13 20 14 18 24 25 34 38 32 21 20 17 13 11 9 7 6 4 3 3 3 4 8 13 17 21 23 25 24 23 22 21 19 19 21 22 22 22
5 10 11 8 5 6 5 14 16 13 9 26 15 19 23 34 36 32 33 28 19 19 15 12 9 8 8 7 6 4 5 5 6 8 11 14 17 19 21 19 18 16 13 10 10 11 15 17 16
6 8 11 5 5 9 10 10 9 14 34 23 23 17 20 26 34 31 31 31 25 22 20 15 12 11 8 6 7 8 8 6 6 7 9 12 13 13 14 13 10 8 6 5 4 2 5 11 16
10 9 8 8 2 3 6 12 13 15 21 24 7 11 19 35 37 38 37 33 29 27 22 19 16 13 10 9 11 11 9 8 8 7 8 10 12 13 12 11 9 10 12 11 10 8 6 5 13
13 13 7 1 8 6 8 10 19 27 20 7 9 8 12 34 42 33 37 29 24 24 21 20 17 14 11 9 7 8 9 10 9 9 11 14 17 18 18 17 17 18 19 17 13 12 11 10 11
14 10 8 11 8 8 11 10 30 28 42 54 31 49 40 44 46 36 36 31 20 17 16 15 15 12 8 5 2 2 3 6 8 11 13 16 18 20 22 22 23 23 23 23 20 18 16 17 15
9 9 18 19 8 12 24 16 7 16 34 29 45 44 42 43 42 46 43 35 27 24 21 16 12 11 9 2 5 4 4 5 7 11 15 19 22 25 27 29 28 28 31 31 27 24 22 26 24
7 11 19 30 15 47 26 45 13 21 23 25 25 38 40 36 36 35 37 33 26 22 22 21 17 13 13 7 10 12 13 15 16 22 24 29 30 32 35 35 30 36 37 39 39 33 29 32 29
15 13 9 20 31 28 19 19 34 50 33 39 35 33 27 26 27 26 29 28 26 21 17 14 13 11 13 13 13 19 20 21 21 23 22 23 25 28 28 28 28 30 34 38 35 20 23 35 40
13 8 22 44 54 54 59 45 32 44 43 38 36 31 26 25 26 25 25 25 24 25 23 24 19 19 18 15 14 17 19 21 21 26 27 24 21 22 24 25 24 26 28 29 31 33 31 36 47
17 34 38 40 49 30 43 26 13 28 33 35 32 30 29 27 25 23 22 25 29 31 33 34 35 36 34 27 22 23 29 33 34 28 26 21 22 29 30 31 25 22 26 30 32 34 36 39 40
51 27 31 26 20 26 52 25 17 25 21 25 25 31 24 25 22 23 22 25 27 31 32 31 30 29 35 30 29 35 41 44 40 30 26 26 22 20 27 30 25 22 20 23 26 26 30 33 37
10 8 9 11 20 19 13 17 14 16 11 15 15 27 26 24 22 21 19 21 26 25 28 28 30 29 35 29 27 38 48 54 51 34 27 27 22 21 20 25 30 34 36 34 30 27 25 24 28
2 8 22 7 13 11 6 24 17 2 3 12 16 21 24 20 21 17 16 17 20 22 25 25 27 35 35 26 31 44 53 53 42 23 20 24 26 23 30 34 34 37 38 38 32 29 27 23 22
7 11 14 15 11 23 27 27 6 2 14 14 15 19 20 17 14 13 10 10 8 11 14 19 30 36 31 25 36 45 46 43 34 27 26 28 27 31 33 42 37 32 29 29 30 28 25 28 25
15 32 29 13 21 25 28 14 5 0 17 16 17 16 17 13 9 6 2 8 17 16 18 23 25 24 24 34 46 44 42 44 35 29 33 31 32 33 35 39 32 30 30 28 24 27 26 28 26
26 29 22 22 15 25 15 16 12 12 11 15 13 15 14 10 5 5 9 14 14 7 17 21 23 26 35 43 44 44 46 41 37 30 27 26 27 28 29 31 32 33 31 23 21 21 23 24 19
4 14 16 23 18 23 26 11 7 4 5 10 14 17 15 11 7 2 10 13 12 13 18 19 24 33 42 45 47 51 44 38 37 31 26 21 20 22 27 27 29 33 28 23 23 20 20 19 15
8 19 42 52 22 11 3 7 5 4 5 16 16 22 19 8 5 4 7 6 6 13 13 18 32 41 43 41 40 44 41 41 38 39 37 33 29 28 31 32 30 33 26 25 19 15 15 15 13
5 47 47 28 24 14 3 7 5 5 2 9 13 22 20 9 8 2 8 8 3 13 22 29 37 43 37 34 39 44 44 40 39 40 35 28 25 28 33 28 22 19 14 13 12 11 10 10 9
7 15 12 10 8 8 7 7 7 9 13 14 21 21 17 12 11 8 9 5 6 14 25 37 41 27 32 38 44 40 39 39 38 33 31 28 23 20 20 18 13 5 8 10 13 9 7 7 9
12 13 7 8 10 4 3 7 9 7 14 17 31 25 19 12 13 13 11 7 15 27 39 35 25 31 36 46 34 34 37 40 37 36 31 25 21 19 10 4 1 5 7 9 15 11 5 3 8
9 11 9 7 8 6 8 6 5 2 17 23 27 24 22 14 16 13 5 12 26 36 28 21 24 27 37 45 38 33 30 38 37 31 28 28 17 30 30 23 16 14 17 15 16 14 9 5 9
2 8 5 13 6 8 3 4 5 10 13 19 24 30 22 22 15 8 6 19 25 20 18 17 24 29 34 40 44 35 32 30 33 28 24 23 26 23 22 22 21 13 16 23 20 17 14 14 17
13 6 7 7 8 5 4 5 6 12 13 17 23 25 28 24 14 4 11 19 10 13 14 16 26 29 31 38 40 39 33 32 28 26 26 27 21 19 17 18 16 16 16 19 22 24 21 14 19
9 7 10 10 7 8 6 8 10 16 18 20 35 33 32 23 11 4 14 13 11 8 10 17 24 27 34 34 38 39 34 31 28 25 19 17 16 13 16 17 15 13 12 17 20 25 26 23 19
8 4 7 9 1 5 6 8 9 23 38 41 31 35 32 20 7 7 12 8 11 9 10 19 25 28 30 37 34 33 38 36 29 28 25 18 17 16 16 16 16 11 7 11 9 15 19 21 18
Wind_Direction_850mb
344 23 61 67 54 68 61 15 264 355 48 60 83 81 89 47 50 153 145 161 152 135 135 133 131 138 139 136 132 130 136 128 131 141 143 143 141 140 138 136 132 125 119 114 109 104 106 114 125
27 68 110 77 85 59 11 299 312 284 39 109 94 83 58 69 94 120 134 149 143 136 144 140 140 146 144 142 139 144 153 140 145 144 145 146 142 142 140 137 132 126 119 111 102 97 93 100 128
135 129 60 83 99 136 156 234 260 301 338 30 98 46 60 106 113 124 138 142 135 150 144 143 147 145 145 146 144 148 159 164 159 154 154 152 148 148 146 142 136 129 122 112 102 93 90 93 117
137 113 67 71 68 344 189 253 301 319 6 96 111 59 61 106 108 127 130 125 129 136 131 134 137 132 125 108 98 100 73 120 151 157 159 157 155 154 152 148 143 137 128 114 100 96 94 99 112
105 89 65 73 15 232 267 43 17 30 40 47 50 71 72 108 113 119 120 118 117 108 109 105 105 109 110 101 69 63 94 118 136 152 158 161 160 160 160 158 155 151 138 124 117 105 102 106 119
10 83 67 103 270 279 49 55 55 44 84 69 70 73 67 93 109 115 114 111 107 98 92 89 87 90 96 80 79 87 85 101 121 144 159 164 168 169 166 167 167 168 176 186 199 164 106 120 143
111 70 115 123 237 324 59 80 47 29 46 20 95 84 68 115 121 121 118 112 104 97 94 86 85 85 81 81 88 90 94 101 116 133 153 172 181 186 188 186 187 198 204 212 222 234 231 200 165
124 82 83 326 218 65 62 64 56 37 42 305 99 98 81 97 132 132 125 115 108 105 89 80 67 65 66 62 73 100 132 141 144 162 185 202 209 209 206 213 217 222 216 217 226 238 244 232 210
149 83 127 176 227 129 61 101 72 86 76 62 75 105 118 119 128 139 128 120 103 83 73 82 71 58 46 43 63 148 149 165 195 213 219 228 237 239 237 239 242 246 241 234 244 254 246 246 229
97 112 187 201 171 139 115 89 74 106 88 72 79 100 124 120 116 109 104 99 92 82 75 72 83 82 70 33 79 318 308 275 260 267 269 266 267 268 261 256 257 257 255 256 267 266 261 237 231
42 143 173 207 137 122 86 56 60 102 59 77 84 98 106 103 94 96 95 91 81 77 79 80 72 57 53 36 359 340 338 324 305 295 287 280 283 282 276 270 270 266 267 264 267 254 264 244 234
93 62 10 107 118 103 88 88 60 69 80 92 95 91 91 92 90 85 93 93 95 92 80 68 58 45 42 26 19 13 357 348 333 324 303 288 279 280 284 280 273 268 265 261 264 247 241 245 244
62 93 78 91 92 94 93 74 90 83 98 100 107 104 102 102 102 99 96 92 83 71 61 51 33 21 10 348 342 329 333 345 349 342 340 333 311 308 307 301 290 281 272 266 267 265 266 256 251
109 91 82 89 91 110 97 73 97 100 128 128 124 115 116 112 107 97 83 75 60 56 51 45 40 33 16 2 357 352 342 336 327 322 330 331 331 334 333 334 319 303 287 278 273 267 262 259 256
118 92 78 88 92 119 93 74 99 148 134 124 114 114 120 111 109 89 74 65 54 54 53 41 25 17 22 5 351 353 346 337 319 315 306 311 320 343 355 345 334 319 311 304 296 288 276 265 262
66 103 126 230 126 186 22 116 151 144 90 98 121 109 115 113 103 91 74 61 57 49 33 22 6 9 11 11 356 344 347 341 341 315 295 300 303 318 331 328 324 317 313 308 305 299 281 278 275
96 153 113 128 345 133 164 126 193 167 278 123 116 116 114 119 112 87 79 55 44 24 8 359 353 2 358 344 339 349 345 338 325 309 295 287 292 302 306 306 309 308 304 300 294 286 294 296 300
234 101 77 96 3 107 103 117 145 128 124 125 141 130 136 145 124 104 70 36 341 345 350 344 354 353 347 328 333 343 342 334 310 293 290 285 287 293 290 297 300 307 313 307 294 286 286 291 303
97 85 92 114 123 84 117 117 116 243 125 159 184 166 158 148 155 141 348 300 299 322 332 333 329 326 329 336 341 342 345 342 327 303 294 296 288 287 285 282 299 307 310 308 298 279 280 286 286
98 104 94 74 99 108 142 110 131 190 172 186 191 199 168 177 226 268 314 297 324 300 316 311 313 324 333 336 340 338 332 331 325 315 303 295 286 289 292 292 298 314 312 308 303 283 270 269 262
72 134 172 134 102 110 130 77 97 42 173 175 217 214 197 199 235 337 331 325 304 294 302 304 319 327 331 334 336 334 327 323 321 322 324 319 307 298 296 296 305 309 302 303 306 292 279 262 252
71 116 134 138 129 153 235 115 265 211 248 169 197 208 204 197 201 325 334 328 306 282 292 310 318 325 328 335 345 341 342 337 332 326 320 310 295 290 287 298 300 302 294 297 293 291 284 267 257
105 137 148 150 119 114 91 114 193 120 262 177 204 200 198 220 191 3 321 296 248 274 305 316 326 331 339 349 344 341 338 331 322 320 316 313 315 289 280 291 300 308 305 304 298 298 284 271 240
97 132 101 116 117 70 279 139 201 184 200 173 203 200 200 221 211 260 247 273 343 331 331 334 341 353 355 351 343 346 351 351 344 340 337 332 327 318 294 281 292 330 353 352 332 303 294 262 215
73 59 359 8 29 181 253 73 229 201 171 189 187 195 212 235 225 210 222 276 323 334 336 349 7 1 357 354 352 352 2 1 354 349 352 346 346 357 345 329 134 81 5 334 337 348 282 268 196
77 129 146 252 178 201 7 134 235 150 168 171 173 186 183 179 185 196 230 338 338 342 345 2 355 356 356 357 357 355 354 4 6 0 4 9 18 41 33 39 45 71 41 47 54 47 70 102 148
44 52 171 107 68 97 218 125 120 112 102 132 173 182 175 171 176 150 19 344 341 356 0 10 356 356 1 9 9 3 4 356 5 9 13 7 57 49 41 44 40 71 65 64 55 60 67 89 114
95 153 23 16 134 111 179 246 236 182 174 171 181 186 166 163 157 113 354 340 350 1 2 357 357 6 6 8 9 11 9 15 14 16 20 67 52 31 35 47 35 49 63 63 67 68 70 76 103
11 11 51 109 78 142 166 256 210 187 187 185 195 193 178 168 154 26 348 347 351 2 359 2 5 358 8 15 14 18 18 20 22 18 23 17 25 14 22 35 39 49 68 64 59 70 70 80 93
81 76 99 109 159 62 126 269 315 183 183 193 183 187 173 170 152 7 7 14 20 357 348 1 9 6 4 12 14 20 24 28 24 24 25 25 14 13 16 20 17 12 74 82 67 71 79 78 80